This is the latest recevied weather packets stored in our database for station/object VK2XSE. If no packets are shown the sender has not sent any weather packets the latest 10 day(s).
| Time | Temp. | Humidity | Pressure | Rain* | Wind** | Luminosity | Snow |
|---|---|---|---|---|---|---|---|
| 1778033718 | 15.56° C | 68% | 1021.8 hPa | 0 mm | - | 245 W/m² | - |
| 1778033118 | 15.56° C | 69% | 1022 hPa | 0 mm | - | 302 W/m² | - |
| 1778032518 | 15.56° C | 71% | 1022.2 hPa | 0 mm | - | 424 W/m² | - |
| 1778031918 | 15.56° C | 72% | 1022.2 hPa | 0 mm | - | 287 W/m² | - |
| 1778031318 | 15° C | 72% | 1022.4 hPa | 0 mm | - | 247 W/m² | - |
| 1778030718 | 15° C | 73% | 1022.6 hPa | 0 mm | - | 362 W/m² | - |
| 1778030118 | 14.44° C | 77% | 1022.8 hPa | 0 mm | - | 382 W/m² | - |
| 1778029518 | 14.44° C | 79% | 1023 hPa | 0 mm | - | 306 W/m² | - |
| 1778028918 | 14.44° C | 79% | 1023 hPa | 0 mm | - | 293 W/m² | - |
| 1778028318 | 13.89° C | 80% | 1023 hPa | 0 mm | - | 329 W/m² | - |
| 1778027718 | 13.89° C | 81% | 1023.2 hPa | 0 mm | - | 265 W/m² | - |
| 1778027118 | 13.89° C | 82% | 1023.3 hPa | 0 mm | - | 272 W/m² | - |
| 1778026518 | 13.33° C | 82% | 1023.4 hPa | 0 mm | - | 253 W/m² | - |
| 1778025918 | 13.33° C | 85% | 1023.3 hPa | 0 mm | - | 289 W/m² | - |
| 1778025318 | 12.78° C | 86% | 1023.2 hPa | 0 mm | - | 335 W/m² | - |
| 1778024718 | 12.22° C | 89% | 1023.2 hPa | 0 mm | - | 404 W/m² | - |
| 1778024118 | 11.67° C | 92% | 1023.3 hPa | 0 mm | - | 274 W/m² | - |
| 1778023518 | 11.11° C | 93% | 1023.2 hPa | 0 mm | - | 228 W/m² | - |
| 1778022918 | 10.56° C | 94% | 1023.3 hPa | 0 mm | - | 249 W/m² | - |
| 1778022318 | 10.56° C | 95% | 1023.3 hPa | 0 mm | - | 300 W/m² | - |
| 1778021718 | 10° C | 95% | 1023.3 hPa | 0 mm | - | 272 W/m² | - |
| 1778021118 | 9.44° C | 95% | 1023.2 hPa | 0 mm | - | 248 W/m² | - |
| 1778020518 | 8.89° C | 94% | 1023.2 hPa | 0 mm | - | 55 W/m² | - |
| 1778019918 | 8.33° C | 94% | 1023.1 hPa | 0 mm | - | 32 W/m² | - |
| 1778019318 | 7.78° C | 94% | 1022.9 hPa | 0 mm | - | 32 W/m² | - |
* Rain latest hour (hover to see other rain measurements)
** Current wind speed in m/s (hover to see current wind gust speed)